Aérodrome :
LOGIN :

S'inscrire | Disclaimer

   EN    FR    IT 

 










Légende :    VFR   VFR Marginal   IFR   IFR Intensif   IFR Très Intensif
Visi : 
Plafond : 
>= 8 km
>= 3000ft
5 à 8 km
1000 à 3000 ft
1500m à 5 km
500 à 1000 ft
800 à 1500m
200 à 500 ft
< 800m
< 200 ft
Symboles :   Orages  Brouillard  Fortes neiges  Fortes précipitations  Vent > 20 kt
SIGMETs :   Divers  Orages  Givrage  Turbulence  Onde Orograph.  Cendres Volcan.







- Altitude de l'aérodrome : 1306 ft
- Code IATA : ACH


LSZR - Alten Rhein

DERNIER METAR :
  • 241350Z 28008KT CAVOK 21/09 Q1019 NOSIG RMK G

METARs EXPIRÉS :
  • 241320Z 28008KT 260V330 CAVOK 20/09 Q1019 NOSIG RMK F
  • 241250Z 27007KT 240V310 CAVOK 20/11 Q1020 NOSIG RMK F
  • 241220Z 29007KT CAVOK 19/11 Q1020 NOSIG RMK E
  • 241150Z 30007KT 250V330 CAVOK 19/11 Q1020 NOSIG RMK E
  • 241120Z 27006KT 240V310 CAVOK 19/10 Q1020 NOSIG RMK D

TAF TAF LSZR
Valide du 24 à 12h jusqu'au 24 à 21h UTC


241125Z 2412/2421 26006KT CAVOK
BECMG 2412/2415 9999 SCT050
ATIS : +41 71 858 51 66
Pas de NOTAMs connus pour ce terrain.



MET'MAP, la Météo Aéronautique d'un coup d'oeil ! - Copyright ORBIFLY Décembre 2007 - Disclaimer

ORBIFLY MET'MAP TEAM :

Programmation & Développement : Alexandra Zaïnal
Conception & Développement : Baudouin d'Aumeries
Co-Programmation & Développement : Marc-Olivier Méhu
Soutien technique & logistique : Manuel Goepfert

Contact : metmap@orbifly.com




SOURCES & CREDITS :

   NOAA